Akron, OH

9:11 AM EST on February 24, 2018 (GMT -0500)
Akron Fulton International

Weather History for KAKR - June, 2013

Change the Weather History Date:

Saturday, June 1, 2013

  Actual Average (KCAK) Record (KCAK)
Temperature  
Mean Temperature 73 °F -  
Max Temperature 82 °F 75 °F 96 °F (1934)
Min Temperature 64 °F 54 °F 39 °F (1966)
Cooling Degree Days 8    
Growing Degree Days 23 (Base 50)    
Moisture  
Dew Point 65 °F    
Average Humidity 72    
Maximum Humidity 93    
Minimum Humidity 58    
Precipitation  
Precipitation 0.00 in - - ()
Sea Level Pressure  
Sea Level Pressure 29.87 in    
Wind  
Wind Speed 11 mph (SSW)    
Max Wind Speed 22 mph    
Max Gust Speed 32 mph    
Visibility 10 miles    
Events      
Averages and records for this station are not official NWS values.
T = Trace of Precipitation, MM = Missing Value Source: NWS Daily Summary

Daily Weather History Graph

Daily Weather History Graph

Search for Another Location

Airport or City:

Trip Planner

Search our weather history database for the weather conditions in past years. The results will help you decide how hot, cold, wet, or windy it might be!

Date:

Astronomy

Jun. 01, 2013 Rise Set
Actual Time 5:55 AM EDT 8:52 PM EDT
Civil Twilight 5:22 AM EDT 9:25 PM EDT
Nautical Twilight 4:41 AM EDT 10:06 PM EDT
Astronomical Twilight 3:52 AM EDT 10:55 PM EDT
Moon 1:54 AM EDT (6/1) 2:17 PM EDT (6/1)
Length of Visible Light 16h 02m
Length of Day
14h 56m
Last Quarter, 41% of the Moon is Illuminated
Jun 1
Last Quarter
Jun 8
New
Jun 16
First Quarter
Jun 23
Full
Jun 30
Last Quarter

Hourly Weather History & Observations

Time (EDT) Temp. Heat Index Dew Point Humidity Pressure Visibility Wind Dir Wind Speed Gust Speed Precip Events Conditions
12:54 AM 66.0 °F - 64.0 °F 93% 29.96 in 10.0 mi SSW 5.8 mph - 0.00 in   Clear
1:54 AM 66.0 °F - 64.0 °F 93% 29.96 in 10.0 mi South 5.8 mph - N/A   Clear
2:54 AM 66.9 °F - 63.0 °F 87% 29.92 in 10.0 mi South 9.2 mph - N/A   Clear
3:54 AM 66.0 °F - 63.0 °F 90% 29.91 in 10.0 mi South 6.9 mph - N/A   Scattered Clouds
4:54 AM 64.9 °F - 63.0 °F 93% 29.93 in 10.0 mi SSW 5.8 mph - N/A   Clear
5:54 AM 66.0 °F - 63.0 °F 90% 29.92 in 10.0 mi SSE 5.8 mph - N/A   Clear
6:54 AM 66.9 °F - 63.0 °F 87% 29.92 in 10.0 mi South 9.2 mph - N/A   Clear
7:54 AM 71.1 °F - 64.9 °F 81% 29.91 in 10.0 mi South 11.5 mph - N/A   Partly Cloudy
8:54 AM 73.0 °F - 64.9 °F 76% 29.91 in 10.0 mi SSW 17.3 mph 21.9 mph N/A   Scattered Clouds
9:54 AM 75.9 °F - 66.0 °F 71% 29.89 in 10.0 mi SSW 13.8 mph 20.7 mph N/A   Partly Cloudy
10:51 AM 77.0 °F - 64.4 °F 65% 29.91 in 10.0 mi SSW 19.6 mph 31.1 mph N/A   Mostly Cloudy
10:54 AM 77.0 °F - 64.9 °F 66% 29.89 in 10.0 mi SSW 21.9 mph 31.1 mph N/A   Mostly Cloudy
11:35 AM 77.0 °F - 64.4 °F 65% 29.90 in 10.0 mi SW 12.7 mph 25.3 mph N/A   Scattered Clouds
11:54 AM 77.0 °F - 66.0 °F 69% 29.88 in 10.0 mi SSW 15.0 mph 26.5 mph N/A   Clear
12:54 PM 80.1 °F 82.3 °F 66.9 °F 64% 29.87 in 10.0 mi SSW 19.6 mph 27.6 mph N/A   Clear
1:54 PM 81.0 °F 83.0 °F 66.0 °F 60% 29.87 in 10.0 mi SSW 18.4 mph 32.2 mph N/A   Partly Cloudy
2:54 PM 82.0 °F 84.5 °F 66.9 °F 60% 29.85 in 10.0 mi SSW 20.7 mph 25.3 mph N/A   Scattered Clouds
3:54 PM 81.0 °F 83.0 °F 66.0 °F 60% 29.84 in 10.0 mi SSW 20.7 mph 29.9 mph N/A   Mostly Cloudy
4:54 PM 82.0 °F 84.5 °F 66.9 °F 60% 29.84 in 10.0 mi SSW 17.3 mph 23.0 mph N/A   Mostly Cloudy
5:54 PM 82.0 °F 84.1 °F 66.0 °F 58% 29.82 in 10.0 mi SSW 16.1 mph 23.0 mph N/A   Scattered Clouds
6:54 PM 82.0 °F 84.1 °F 66.0 °F 58% 29.80 in 10.0 mi SW 17.3 mph 25.3 mph N/A   Partly Cloudy
7:54 PM 80.1 °F 81.7 °F 64.0 °F 58% 29.80 in 10.0 mi SSW 18.4 mph 26.5 mph N/A   Scattered Clouds
8:54 PM 78.1 °F - 64.0 °F 62% 29.79 in 10.0 mi SSW 13.8 mph - N/A   Partly Cloudy
9:54 PM 77.0 °F - 64.9 °F 66% 29.78 in 10.0 mi South 12.7 mph - N/A   Clear
10:54 PM 75.9 °F - 64.9 °F 69% 29.76 in 10.0 mi SSW 17.3 mph 32.2 mph N/A   Mostly Cloudy
11:54 PM 73.9 °F - 66.0 °F 76% 29.75 in 10.0 mi South 11.5 mph - N/A   Mostly Cloudy